Weather History for Worcester, MA

Change the Weather History Date:

Saturday, February 8, 2014

  Actual Average Record
Temperature  
Mean Temperature 16 °F 26 °F  
Max Temperature 23 °F 33 °F 65 °F (1925)
Min Temperature 8 °F 18 °F -10 °F (1963)
Degree Days  
Heating Degree Days 49 39  
Month to date heating degree days 318 318  
Since 1 July heating degree days 4207 4091  
Cooling Degree Days 0 0  
Month to date cooling degree days 0 0  
Year to date cooling degree days 0 0  
Moisture  
Dew Point 0 °F    
Average Humidity 53    
Maximum Humidity 70    
Minimum Humidity 36    
Precipitation  
Precipitation 0.00 in 0.12 in 2.07 in (1971)
Month to date precipitation 1.36 0.91  
Year to date precipitation 4.46 4.40  
Sea Level Pressure  
Sea Level Pressure 30.20 in    
Wind  
Wind Speed 9 mph (West)    
Max Wind Speed 17 mph    
Max Gust Speed 23 mph    
Visibility 10 miles    
Events      
T = Trace of Precipitation, MM = Missing Value Source: NWS Daily Summary

Daily Weather History Graph

Daily Weather History Graph

Search for Another Location

Airport:

Trip Planner

Search our weather history database for the weather conditions in past years. The results will help you decide how hot, cold, wet, or windy it might be!

Date:

Astronomy

Feb. 08, 2014 Rise Set
Actual Time 6:52 AM EST 5:10 PM EST
Civil Twilight 6:23 AM EST 5:40 PM EST
Nautical Twilight 5:50 AM EST 6:13 PM EST
Astronomical Twilight 5:17 AM EST 6:46 PM EST
Moon 12:01 PM EST (2/8) 2:04 AM EST (2/8)
Length of Visible Light 11h 16m
Length of Day
10h 17m
Waxing Gibbous, 68% of the Moon is Illuminated
Feb 8
Waxing Gibbous
Feb 14
Full
Feb 22
Last Quarter
Mar 1
New
Mar 8
First Quarter

Hourly Weather History & Observations

Time (EST) Temp. Windchill Dew Point Humidity Pressure Visibility Wind Dir Wind Speed Gust Speed Precip Events Conditions
12:54 AM 12.9 °F 1.6 °F 5.0 °F 71% 30.21 in 10.0 mi WSW 8.1 mph - N/A   Clear
1:54 AM 12.0 °F -0.4 °F 3.9 °F 70% 30.21 in 10.0 mi West 9.2 mph - N/A   Clear
2:54 AM 14.0 °F 0.5 °F 1.0 °F 56% 30.20 in 10.0 mi West 11.5 mph - N/A   Clear
3:54 AM 12.0 °F 0.5 °F -0.9 °F 56% 30.22 in 10.0 mi West 8.1 mph - N/A   Clear
4:54 AM 10.9 °F -0.8 °F -2.0 °F 56% 30.24 in 10.0 mi West 8.1 mph - N/A   Clear
5:54 AM 9.0 °F -3.2 °F -2.9 °F 59% 30.25 in 10.0 mi West 8.1 mph - N/A   Clear
6:54 AM 10.0 °F -2.9 °F -2.9 °F 56% 30.26 in 10.0 mi West 9.2 mph - N/A   Clear
7:54 AM 10.9 °F -1.8 °F -2.9 °F 54% 30.27 in 10.0 mi West 9.2 mph - N/A   Clear
8:54 AM 12.9 °F -1.6 °F -2.9 °F 49% 30.27 in 10.0 mi WNW 12.7 mph 21.9 mph N/A   Clear
9:39 AM 14.0 °F -1.4 °F -2.9 °F 47% 30.21 in 10.0 mi WNW 15.0 mph - N/A   Clear
9:54 AM 15.1 °F 4.2 °F -2.0 °F 47% 30.27 in 10.0 mi West 8.1 mph - N/A   Clear
10:54 AM 17.1 °F 4.3 °F -2.0 °F 43% 30.26 in 10.0 mi West 11.5 mph - N/A   Clear
11:54 AM 19.9 °F 10.1 °F -2.0 °F 38% 30.23 in 10.0 mi WSW 8.1 mph - N/A   Clear
12:54 PM 21.9 °F 12.5 °F -0.9 °F 37% 30.17 in 10.0 mi West 8.1 mph - N/A   Clear
1:54 PM 21.9 °F 11.7 °F -0.9 °F 37% 30.18 in 10.0 mi West 9.2 mph - N/A   Partly Cloudy
2:54 PM 23.0 °F 13.1 °F 1.0 °F 39% 30.17 in 10.0 mi West 9.2 mph - N/A   Mostly Cloudy
3:54 PM 23.0 °F 13.1 °F -0.0 °F 37% 30.18 in 10.0 mi West 9.2 mph - N/A   Mostly Cloudy
4:54 PM 21.9 °F 14.5 °F 3.0 °F 44% 30.19 in 10.0 mi WSW 5.8 mph - N/A   Overcast
5:54 PM 21.9 °F 13.4 °F 3.0 °F 44% 30.19 in 10.0 mi WSW 6.9 mph - N/A   Overcast
6:54 PM 21.9 °F 12.5 °F 1.9 °F 42% 30.17 in 10.0 mi West 8.1 mph - N/A   Overcast
7:54 PM 21.0 °F 9.9 °F -2.0 °F 36% 30.14 in 10.0 mi West 10.4 mph - N/A   Overcast
8:54 PM 21.0 °F 9.3 °F -2.0 °F 36% 30.14 in 10.0 mi West 11.5 mph - N/A   Overcast
9:54 PM 19.9 °F 6.7 °F -0.9 °F 40% 30.13 in 10.0 mi WNW 13.8 mph - N/A   Overcast
10:54 PM 19.9 °F 6.7 °F -0.0 °F 42% 30.12 in 10.0 mi WNW 13.8 mph - N/A   Overcast
11:54 PM 19.0 °F 8.2 °F 1.0 °F 46% 30.11 in 10.0 mi NW 9.2 mph - N/A   Overcast